| time (UTC) | temp F | wind direction | speed MPH | gust MPH | rain 1hr in | rain 24hr in | rain mn in | humidity % | barometer mb |
| 20260906074606 | 65 | 0 | 0.0 | 0.0 | 0.00 | 0.00 | 0.00 | 96 | 1018.3 |
| 20260906073107 | 65 | 0 | 0.0 | 0.0 | 0.00 | 0.00 | 0.00 | 96 | 1018.4 |
| 20260906071600 | 64 | 0 | 0.0 | 0.0 | 0.00 | 0.00 | 0.00 | 96 | 1018.4 |
| 20260906070125 | 65 | 0 | 0.0 | 0.0 | 0.00 | 0.00 | 0.00 | 95 | 1018.5 |
| 20260906064556 | 65 | 0 | 0.0 | 0.0 | 0.00 | 0.00 | 0.00 | 95 | 1018.7 |
| 20260906063059 | 66 | 0 | 0.0 | 0.0 | 0.00 | 0.00 | 0.00 | 95 | 1018.8 |
| 20260906061635 | 67 | 0 | 0.0 | 0.0 | 0.00 | 0.00 | 0.00 | 94 | 1018.9 |
| 20260906060100 | 68 | 0 | 0.0 | 0.0 | 0.00 | 0.00 | 0.00 | 94 | 1018.8 |
| 20260906054557 | 68 | 0 | 0.0 | 0.0 | 0.00 | 0.00 | 0.00 | 94 | 1018.7 |
| 20260906053058 | 69 | 0 | 0.0 | 0.0 | 0.00 | 0.00 | 0.00 | 94 | 1018.7 |
| 20260906051558 | 69 | 0 | 0.0 | 0.0 | 0.00 | 0.00 | 0.00 | 94 | 1018.6 |
| 20260906050110 | 70 | 0 | 0.0 | 0.0 | 0.00 | 0.00 | 0.00 | 94 | 1018.4 |
| 20260906044553 | 70 | 0 | 0.0 | 0.0 | 0.00 | 0.00 | 0.00 | 93 | 1018.2 |
| 20260906043109 | 70 | 0 | 0.0 | 3.0 | 0.00 | 0.00 | 0.00 | 93 | 1018.2 |
| 20260906041600 | 71 | 0 | 0.0 | 3.0 | 0.00 | 0.00 | 0.00 | 94 | 1017.9 |
| 20260906040115 | 71 | 0 | 0.0 | 1.0 | 0.00 | 0.00 | 0.00 | 94 | 1017.7 |
| 20260906034553 | 71 | 0 | 0.0 | 1.0 | 0.00 | 0.00 | 0.00 | 94 | 1017.6 |
| 20260906033102 | 71 | 0 | 0.0 | 0.0 | 0.00 | 0.00 | 0.00 | 95 | 1017.2 |
| 20260906031607 | 71 | 0 | 0.0 | 0.0 | 0.00 | 0.00 | 0.00 | 95 | 1017.2 |
| 20260906030107 | 71 | 0 | 0.0 | 0.0 | 0.00 | 0.00 | 0.00 | 95 | 1017.0 |
| 20260906024551 | 71 | 0 | 0.0 | 0.0 | 0.00 | 0.00 | 0.00 | 94 | 1016.8 |
| 20260906023130 | 71 | 0 | 0.0 | 0.0 | 0.00 | 0.00 | 0.00 | 94 | 1016.4 |
| 20260906021558 | 71 | 0 | 0.0 | 0.0 | 0.00 | 0.00 | 0.00 | 94 | 1016.4 |
| 20260906020056 | 71 | 0 | 0.0 | 0.0 | 0.00 | 0.00 | 0.00 | 93 | 1016.1 |
| 20260906014623 | 72 | 0 | 0.0 | 0.0 | 0.00 | 0.00 | 0.00 | 93 | 1016.0 |
| 20260906013101 | 72 | 0 | 0.0 | 0.0 | 0.00 | 0.00 | 0.00 | 92 | 1015.8 |
| 20260906011601 | 73 | 0 | 0.0 | 0.0 | 0.00 | 0.00 | 0.00 | 91 | 1015.9 |
| 20260906010111 | 73 | 0 | 0.0 | 0.0 | 0.00 | 0.00 | 0.00 | 91 | 1016.0 |
| 20260906004609 | 74 | 0 | 0.0 | 0.0 | 0.00 | 0.00 | 0.00 | 90 | 1015.9 |
| 20260906003059 | 75 | 0 | 0.0 | 0.0 | 0.00 | 0.00 | 0.00 | 89 | 1015.9 |
| 20260906001557 | 76 | 0 | 0.0 | 0.0 | 0.00 | 0.00 | 0.00 | 88 | 1015.9 |
| 20260906000104 | 77 | 0 | 0.0 | 0.0 | 0.00 | 0.00 | 0.00 | 87 | 1015.9 |
| 20260905234556 | 78 | 0 | 0.0 | 3.0 | 0.00 | 0.00 | 0.00 | 86 | 1016.0 |
| 20260905233059 | 79 | 0 | 0.0 | 2.0 | 0.00 | 0.00 | 0.00 | 85 | 1015.9 |
| 20260905231556 | 79 | 0 | 0.0 | 1.0 | 0.00 | 0.00 | 0.00 | 86 | 1015.9 |
| 20260905230108 | 79 | 260 | 1.0 | 2.0 | 0.00 | 0.00 | 0.00 | 85 | 1016.1 |
| 20260905224607 | 79 | 237 | 0.0 | 4.0 | 0.00 | 0.00 | 0.00 | 84 | 1016.1 |
| 20260905223057 | 79 | 232 | 2.0 | 6.0 | 0.00 | 0.00 | 0.00 | 85 | 1016.2 |
| 20260905221553 | 79 | 0 | 0.0 | 5.0 | 0.00 | 0.00 | 0.00 | 85 | 1016.0 |
| 20260905220112 | 78 | 0 | 0.0 | 4.0 | 0.00 | 0.00 | 0.00 | 86 | 1016.1 |
| 20260905214557 | 79 | 258 | 1.0 | 6.0 | 0.00 | 0.00 | 0.00 | 84 | 1016.1 |
| 20260905213054 | 80 | 290 | 1.0 | 4.0 | 0.00 | 0.00 | 0.00 | 86 | 1015.6 |
| 20260905211604 | 80 | 259 | 2.0 | 6.0 | 0.00 | 0.00 | 0.00 | 85 | 1015.7 |
| 20260905210058 | 80 | 246 | 1.0 | 6.0 | 0.00 | 0.00 | 0.00 | 86 | 1015.8 |
| 20260905204555 | 81 | 277 | 1.0 | 6.0 | 0.00 | 0.00 | 0.00 | 87 | 1015.9 |
| 20260905203059 | 80 | 288 | 1.0 | 5.0 | 0.00 | 0.00 | 0.00 | 86 | 1015.9 |
| 20260905201600 | 80 | 257 | 1.0 | 4.0 | 0.00 | 0.00 | 0.00 | 86 | 1016.1 |
| 20260905200100 | 81 | 276 | 1.0 | 6.0 | 0.00 | 0.00 | 0.00 | 85 | 1016.0 |
| 20260905194554 | 80 | 245 | 0.0 | 6.0 | 0.00 | 0.00 | 0.00 | 87 | 1016.0 |
| 20260905193101 | 80 | 224 | 1.0 | 5.0 | 0.00 | 0.00 | 0.00 | 86 | 1016.0 |
| 20260905191603 | 81 | 244 | 1.0 | 4.0 | 0.00 | 0.00 | 0.00 | 85 | 1016.0 |
| 20260905190114 | 82 | 255 | 1.0 | 3.0 | 0.00 | 0.00 | 0.00 | 86 | 1016.0 |
| 20260905184603 | 81 | 258 | 0.0 | 4.0 | 0.00 | 0.00 | 0.00 | 87 | 1016.0 |
| 20260905183124 | 81 | 272 | 2.0 | 5.0 | 0.00 | 0.00 | 0.00 | 86 | 1016.1 |
| 20260905181604 | 81 | 297 | 2.0 | 7.0 | 0.00 | 0.00 | 0.00 | 87 | 1016.1 |
| 20260905180104 | 80 | 267 | 1.0 | 7.0 | 0.00 | 0.00 | 0.00 | 88 | 1016.2 |
| 20260905174602 | 80 | 236 | 1.0 | 5.0 | 0.00 | 0.00 | 0.00 | 87 | 1016.3 |
| 20260905173100 | 80 | 280 | 2.0 | 6.0 | 0.00 | 0.00 | 0.00 | 88 | 1016.6 |
| 20260905171604 | 81 | 266 | 2.0 | 5.0 | 0.00 | 0.00 | 0.00 | 86 | 1016.6 |
| 20260905170058 | 80 | 280 | 2.0 | 5.0 | 0.00 | 0.00 | 0.00 | 89 | 1016.4 |
| 20260905164606 | 78 | 258 | 1.0 | 8.0 | 0.00 | 0.04 | 0.00 | 90 | 1016.6 |
| 20260905163101 | 77 | 274 | 2.0 | 6.0 | 0.00 | 0.04 | 0.00 | 90 | 1016.6 |
| 20260905161558 | 77 | 273 | 1.0 | 4.0 | 0.00 | 0.04 | 0.00 | 92 | 1016.5 |
| 20260905160111 | 77 | 270 | 1.0 | 7.0 | 0.00 | 0.04 | 0.00 | 92 | 1016.6 |
| 20260905154602 | 77 | 260 | 1.0 | 5.0 | 0.00 | 0.04 | 0.00 | 92 | 1016.5 |
| 20260905153111 | 77 | 278 | 1.0 | 4.0 | 0.00 | 0.04 | 0.00 | 92 | 1016.5 |
| 20260905151600 | 78 | 0 | 0.0 | 4.0 | 0.00 | 0.04 | 0.00 | 92 | 1016.4 |
| 20260905150055 | 78 | 267 | 0.0 | 6.0 | 0.00 | 0.04 | 0.00 | 92 | 1016.1 |
| 20260905144602 | 79 | 0 | 0.0 | 2.0 | 0.00 | 0.04 | 0.00 | 93 | 1015.9 |
| 20260905143100 | 77 | 260 | 1.0 | 4.0 | 0.00 | 0.04 | 0.00 | 94 | 1015.5 |
| 20260905141559 | 77 | 0 | 0.0 | 0.0 | 0.00 | 0.04 | 0.00 | 96 | 1015.3 |
| 20260905140107 | 76 | 0 | 0.0 | 0.0 | 0.00 | 0.04 | 0.00 | 97 | 1014.9 |
| 20260905134552 | 76 | 0 | 0.0 | 0.0 | 0.00 | 0.04 | 0.00 | 98 | 1014.9 |
| 20260905133106 | 75 | 0 | 0.0 | 0.0 | 0.00 | 0.04 | 0.00 | 99 | 1014.9 |
| 20260905131608 | 74 | 0 | 0.0 | 0.0 | 0.00 | 0.04 | 0.00 | 99 | 1014.9 |
| 20260905130058 | 73 | 0 | 0.0 | 0.0 | 0.00 | 0.04 | 0.00 | 98 | 1015.0 |
| 20260905124559 | 72 | 0 | 0.0 | 0.0 | 0.00 | 0.04 | 0.00 | 98 | 1014.9 |
| 20260905123102 | 71 | 0 | 0.0 | 0.0 | 0.00 | 0.04 | 0.00 | 98 | 1015.0 |
| 20260905121557 | 70 | 0 | 0.0 | 0.0 | 0.00 | 0.04 | 0.00 | 98 | 1014.9 |
| 20260905120108 | 70 | 0 | 0.0 | 0.0 | 0.00 | 0.04 | 0.00 | 98 | 1014.4 |
| 20260905114554 | 69 | 0 | 0.0 | 0.0 | 0.00 | 0.04 | 0.00 | 97 | 1014.1 |
| 20260905113105 | 69 | 0 | 0.0 | 0.0 | 0.00 | 0.04 | 0.00 | 97 | 1013.9 |
| 20260905111612 | 69 | 0 | 0.0 | 0.0 | 0.00 | 0.04 | 0.00 | 97 | 1013.5 |
| 20260905110100 | 69 | 0 | 0.0 | 0.0 | 0.00 | 0.04 | 0.00 | 97 | 1013.5 |
| 20260905104558 | 70 | 0 | 0.0 | 0.0 | 0.00 | 0.04 | 0.00 | 97 | 1013.3 |
| 20260905103053 | 70 | 0 | 0.0 | 0.0 | 0.00 | 0.04 | 0.00 | 97 | 1013.1 |
| 20260905101605 | 70 | 0 | 0.0 | 0.0 | 0.00 | 0.04 | 0.00 | 97 | 1013.3 |
| 20260905100100 | 70 | 0 | 0.0 | 0.0 | 0.00 | 0.04 | 0.00 | 97 | 1013.3 |
| 20260905094555 | 70 | 0 | 0.0 | 0.0 | 0.00 | 0.04 | 0.00 | 97 | 1013.4 |
| 20260905093058 | 71 | 0 | 0.0 | 0.0 | 0.00 | 0.04 | 0.00 | 97 | 1013.5 |
| 20260905091555 | 71 | 0 | 0.0 | 0.0 | 0.00 | 0.04 | 0.00 | 97 | 1013.5 |
| 20260905084613 | 71 | 0 | 0.0 | 0.0 | 0.00 | 0.04 | 0.00 | 97 | 1013.7 |
| 20260905083052 | 72 | 0 | 0.0 | 0.0 | 0.00 | 0.04 | 0.00 | 97 | 1013.6 |
| 20260905081555 | 72 | 0 | 0.0 | 0.0 | 0.00 | 0.04 | 0.00 | 97 | 1013.7 |
| 20260905080059 | 72 | 0 | 0.0 | 0.0 | 0.00 | 0.04 | 0.00 | 97 | 1013.7 |